Content
SEND FEEDBACK

Daily
Averages
Monthly
Summary
United States of America

UPI, GUAM


Home > North America > United States > Guam
Elevation: 53 feet     Latitude: 13 34N     Longitude: 144 55E

WEATHER
 
SELECT A DAY
Number of Records: 214,775;   Date Range: 1/1/95 - 11/21/14
 
SHARE

PRINT THIS DATA

[ ← Previous Day ]
WEATHER ALMANAC - AUGUST 13, 2013
[ Next Day → ]
[ °C ]   °F
Weather ElementAverageHighLow
Temperature80.7 °F87.8 °F (1:32 pm)75.2 °F (6:26 am)
Dewpoint76.9 °F79 °F (3:54 pm)73.4 °F (6:39 am)
Humidity88.8 %100 % (1:54 am)66 % (1:32 pm)
Barometer29.85 in29.88 in (6:17 am)29.81 in (2:54 am)
Wind Speed4.2 mph10.4 mph (2:15 pm)
Weather ElementAverage
Visibility8.2 mi
Wind DirectionSSE (143.6 °)

Weather ElementTotal
Precipitation2.65 in
Cooling Degree Days16.5 (Base 65)
Growing Degree Days31.5 (Base 50)
Averaged from 42 records on August 13, 2013
WEATHER CONDITIONS BREAKOUT
WIND DIRECTION BREAKOUT
WEATHER BY HOUR - AUGUST 13, 2013
[ °C ]   °F
Local TimeTemperatureDewpointHumidityBarometerVisibilityWind DirectionWind SpeedGust SpeedPrecipitationEventsConditions
1:54 AM77.0 °F77.0 °F100 %29.83 in10.0 miCalmClear
2:54 AM77.0 °F75.9 °F96 %29.81 in10.0 miCalmClear
3:54 AM77.0 °F75.0 °F94 %29.81 in10.0 miSE (130°)3.5 mphClear
4:54 AM78.1 °F75.9 °F93 %29.82 in10.0 miESE (120°)3.5 mphPartly Cloudy
5:49 AM78.8 °F75.2 °F89 %29.86 in10.0 miNNE (30°)6.9 mphMostly Cloudy
5:54 AM78.1 °F77.0 °F96 %29.83 in10.0 miENE (60°)4.6 mphMostly Cloudy
6:17 AM77.0 °F75.2 °F94 %29.88 in2.5 miEast (80°)9.2 mph0.11 inRainHeavy Rain
6:26 AM75.2 °F75.2 °F100 %29.87 in0.8 miCalm0.36 inRainHeavy Rain
6:34 AM75.2 °F75.2 °F100 %29.88 in1.0 miCalm0.49 inRainHeavy Rain
6:39 AM75.2 °F73.4 °F94 %29.88 in3.0 miCalm0.50 inRainLight Rain
6:54 AM75.9 °F75.0 °F97 %29.86 in10.0 miCalm0.51 inRainLight Rain
7:54 AM80.1 °F78.1 °F94 %29.86 in10.0 miCalm0.01 inMostly Cloudy
8:54 AM82.0 °F78.1 °F88 %29.88 in10.0 miSE (140°)4.6 mphPartly Cloudy
9:54 AM84.9 °F75.9 °F74 %29.87 in10.0 miVariable3.5 mphMostly Cloudy
10:54 AM84.0 °F78.1 °F82 %29.86 in10.0 miSSE (150°)5.8 mph0.00 inRainLight Rain
11:54 AM86.0 °F78.1 °F77 %29.85 in10.0 miSE (140°)6.9 mph0.01 inMostly Cloudy
12:35 PM84.2 °F75.2 °F74 %29.86 in10.0 miSE (140°)8.1 mphMostly Cloudy
12:54 PM87.1 °F77.0 °F72 %29.83 in10.0 miSSE (160°)8.1 mphMostly Cloudy
1:32 PM87.8 °F75.2 °F66 %29.84 in10.0 miSouth (170°)6.9 mphMostly Cloudy
1:37 PM87.8 °F75.2 °F66 %29.84 in10.0 miVariable4.6 mphThunderstormThunderstorm
1:54 PM87.1 °F75.9 °F69 %29.82 in10.0 miSouth (170°)5.8 mphThunderstormThunderstorm
2:03 PM84.2 °F75.2 °F74 %29.85 in10.0 miWest (280°)6.9 mphThunderstormThunderstorm
2:15 PM82.4 °F77.0 °F84 %29.85 in10.0 miWest (280°)10.4 mphThunderstormThunderstorm
2:29 PM82.4 °F77.0 °F84 %29.84 in10.0 miWest (280°)8.1 mphThunderstormThunderstorm
2:33 PM82.4 °F77.0 °F84 %29.84 in10.0 miNW (320°)6.9 mphMostly Cloudy
2:54 PM82.0 °F78.1 °F88 %29.82 in10.0 miNNW (340°)9.2 mphMostly Cloudy
3:12 PM80.6 °F78.8 °F94 %29.84 in3.0 miNorth (350°)5.8 mph0.00 inRainRain
3:14 PM80.6 °F78.8 °F94 %29.84 in1.8 miNorth (350°)6.9 mph0.00 inRainHeavy Rain
3:21 PM78.8 °F78.8 °F100 %29.84 in0.8 miNW (310°)6.9 mph0.12 inRain-ThunderstormHeavy Thunderstorms and Rain
3:23 PM78.8 °F78.8 °F100 %29.84 in1.0 miNNW (330°)5.8 mph0.13 inRain-ThunderstormHeavy Thunderstorms and Rain
3:34 PM80.6 °F78.8 °F94 %29.84 in3.0 miNW (320°)4.6 mph0.17 inRain-ThunderstormThunderstorms and Rain
3:54 PM81.0 °F79.0 °F94 %29.81 in10.0 miNNW (340°)5.8 mph0.23 inThunderstormThunderstorm
4:01 PM80.6 °F78.8 °F94 %29.83 in10.0 miNorth (360°)4.6 mphThunderstormThunderstorm
4:10 PM80.6 °F78.8 °F94 %29.83 in10.0 miNorth (350°)4.6 mphPartly Cloudy
4:54 PM81.0 °F78.1 °F91 %29.82 in10.0 miNW (320°)3.5 mphClear
5:54 PM81.0 °F78.1 °F91 %29.82 in8.0 miNorth (10°)3.5 mph0.00 inRainLight Rain
6:54 PM81.0 °F77.0 °F88 %29.84 in10.0 miCalm0.01 inMostly Cloudy
7:54 PM80.1 °F77.0 °F90 %29.86 in10.0 miCalmClear
8:54 PM79.0 °F77.0 °F94 %29.88 in10.0 miCalmClear
9:54 PM79.0 °F77.0 °F94 %29.88 in10.0 miCalmPartly Cloudy
10:54 PM79.0 °F77.0 °F94 %29.88 in10.0 miCalmClear
11:54 PM78.1 °F77.0 °F96 %29.87 in10.0 miCalmClear
Hourly data recorded from PGUM, located miles away from Upi, Guam







STORIES FROM OUR PARTNERS